^^
Station Historical Data
Daily Summary for January 12, 2019 Units:  English    Metric   Both
« Previous Day
Next Day »
Daily Weekly Monthly Yearly Custom
  High: Low: Average:
Temperature: 17.0 °F 11.5 °F 14 °F
Dew Point: 14.1 °F 9.1 °F 11.7 °F
Humidity: 92% 87% 90%
Wind Speed: 16.0mph 0.0mph 5.1mph
Wind Gust: 18.0mph - -
Wind- - SE
Pressure: 30.45 in 30.34 in -
Precipitation: 0.00 in    
Historical Graphs
 
 
Tabular Data for January 12, 2019
Time Temperature Dew Point Pressure Wind Wind Speed Wind Gust Humidity Rainfall Rate (Hourly) solar Conditions
00:04 11.5 °F 9.1 °F 30.40 in North 6.0 mph 9.0 mph 90% 0.00 in 0.00 W/m2
00:09 11.5 °F 9.1 °F 30.40 in North 6.0 mph 9.0 mph 90% 0.00 in 0.00 W/m2
00:14 11.5 °F 9.1 °F 30.40 in North 6.0 mph 9.0 mph 90% 0.00 in 0.00 W/m2
00:19 11.5 °F 9.1 °F 30.40 in NNW 6.0 mph 8.0 mph 90% 0.00 in 0.00 W/m2
00:24 11.5 °F 9.4 °F 30.40 in North 6.0 mph 8.0 mph 91% 0.00 in 0.00 W/m2
00:29 11.6 °F 9.5 °F 30.40 in North 7.0 mph 8.0 mph 91% 0.00 in 0.00 W/m2
00:34 11.6 °F 9.5 °F 30.40 in North 5.0 mph 8.0 mph 91% 0.00 in 0.00 W/m2
00:39 11.6 °F 9.5 °F 30.41 in North 5.0 mph 7.0 mph 91% 0.00 in 0.00 W/m2
00:44 11.6 °F 9.5 °F 30.40 in North 5.0 mph 7.0 mph 91% 0.00 in 0.00 W/m2
00:49 11.6 °F 9.5 °F 30.40 in North 4.0 mph 7.0 mph 91% 0.00 in 0.00 W/m2
00:54 11.7 °F 9.6 °F 30.40 in North 5.0 mph 7.0 mph 91% 0.00 in 0.00 W/m2
00:59 11.6 °F 9.5 °F 30.40 in North 6.0 mph 8.0 mph 91% 0.00 in 0.00 W/m2
01:04 11.6 °F 9.5 °F 30.41 in North 7.0 mph 8.0 mph 91% 0.00 in 0.00 W/m2
01:09 11.6 °F 9.5 °F 30.40 in NNW 7.0 mph 10.0 mph 91% 0.00 in 0.00 W/m2
01:14 11.7 °F 9.6 °F 30.40 in North 7.0 mph 10.0 mph 91% 0.00 in 0.00 W/m2
01:19 11.6 °F 9.5 °F 30.40 in North 6.0 mph 10.0 mph 91% 0.00 in 0.00 W/m2
01:24 11.6 °F 9.5 °F 30.40 in North 4.0 mph 9.0 mph 91% 0.00 in 0.00 W/m2
01:29 11.7 °F 9.6 °F 30.40 in North 4.0 mph 8.0 mph 91% 0.00 in 0.00 W/m2
01:34 11.7 °F 9.6 °F 30.40 in NNE 6.0 mph 8.0 mph 91% 0.00 in 0.00 W/m2
01:39 11.7 °F 9.6 °F 30.40 in NNE 8.0 mph 8.0 mph 91% 0.00 in 0.00 W/m2
01:44 11.7 °F 9.6 °F 30.40 in NNE 8.0 mph 8.0 mph 91% 0.00 in 0.00 W/m2
01:49 11.7 °F 9.6 °F 30.40 in NNE 8.0 mph 8.0 mph 91% 0.00 in 0.00 W/m2
01:54 11.8 °F 9.7 °F 30.40 in North 5.0 mph 7.0 mph 91% 0.00 in 0.00 W/m2
01:59 11.8 °F 9.7 °F 30.40 in NNE 5.0 mph 7.0 mph 91% 0.00 in 0.00 W/m2
02:04 11.7 °F 9.6 °F 30.40 in NNE 6.0 mph 7.0 mph 91% 0.00 in 0.00 W/m2
02:09 11.7 °F 9.6 °F 30.40 in NE 6.0 mph 7.0 mph 91% 0.00 in 0.00 W/m2
02:14 11.7 °F 9.6 °F 30.40 in North 5.0 mph 7.0 mph 91% 0.00 in 0.00 W/m2
02:19 11.7 °F 9.6 °F 30.40 in NE 4.0 mph 7.0 mph 91% 0.00 in 0.00 W/m2
02:24 11.8 °F 9.7 °F 30.41 in NNE 5.0 mph 7.0 mph 91% 0.00 in 0.00 W/m2
02:29 11.7 °F 9.6 °F 30.41 in NE 3.0 mph 6.0 mph 91% 0.00 in 0.00 W/m2
02:34 11.8 °F 9.7 °F 30.41 in North 4.0 mph 6.0 mph 91% 0.00 in 0.00 W/m2
02:39 11.8 °F 9.7 °F 30.41 in NE 4.0 mph 6.0 mph 91% 0.00 in 0.00 W/m2
02:44 11.8 °F 9.7 °F 30.41 in NE 3.0 mph 6.0 mph 91% 0.00 in 0.00 W/m2
02:49 11.8 °F 9.7 °F 30.41 in NNE 2.0 mph 5.0 mph 91% 0.00 in 0.00 W/m2
02:54 11.8 °F 9.7 °F 30.41 in North 5.0 mph 6.0 mph 91% 0.00 in 0.00 W/m2
02:59 11.8 °F 9.7 °F 30.41 in North 3.0 mph 6.0 mph 91% 0.00 in 0.00 W/m2
03:04 11.9 °F 9.8 °F 30.42 in North 4.0 mph 5.0 mph 91% 0.00 in 0.00 W/m2
03:09 11.9 °F 9.8 °F 30.42 in North 2.0 mph 5.0 mph 91% 0.00 in 0.00 W/m2
03:14 11.9 °F 9.8 °F 30.42 in NNE 4.0 mph 6.0 mph 91% 0.00 in 0.00 W/m2
03:19 11.9 °F 9.8 °F 30.42 in North 5.0 mph 6.0 mph 91% 0.00 in 0.00 W/m2
03:24 11.9 °F 9.8 °F 30.42 in NNE 4.0 mph 6.0 mph 91% 0.00 in 0.00 W/m2
03:29 11.9 °F 9.5 °F 30.42 in NNE 2.0 mph 5.0 mph 90% 0.00 in 0.00 W/m2
03:34 11.9 °F 9.5 °F 30.42 in NNE 2.0 mph 5.0 mph 90% 0.00 in 0.00 W/m2
03:39 11.9 °F 9.5 °F 30.42 in NNE 3.0 mph 6.0 mph 90% 0.00 in 0.00 W/m2
03:44 11.9 °F 9.5 °F 30.42 in NE 4.0 mph 6.0 mph 90% 0.00 in 0.00 W/m2
03:49 11.9 °F 9.5 °F 30.42 in NE 1.0 mph 5.0 mph 90% 0.00 in 0.00 W/m2
03:54 11.9 °F 9.5 °F 30.42 in North 2.0 mph 4.0 mph 90% 0.00 in 0.00 W/m2
03:59 11.9 °F 9.5 °F 30.42 in NE 1.0 mph 4.0 mph 90% 0.00 in 0.00 W/m2
04:04 11.9 °F 9.5 °F 30.41 in NE 1.0 mph 4.0 mph 90% 0.00 in 0.00 W/m2
04:09 11.9 °F 9.5 °F 30.41 in NE 2.0 mph 4.0 mph 90% 0.00 in 0.00 W/m2
04:14 11.9 °F 9.5 °F 30.41 in NE 1.0 mph 4.0 mph 90% 0.00 in 0.00 W/m2
04:19 11.9 °F 9.5 °F 30.41 in NE 3.0 mph 4.0 mph 90% 0.00 in 0.00 W/m2
04:24 11.9 °F 9.5 °F 30.41 in NE 3.0 mph 4.0 mph 90% 0.00 in 0.00 W/m2
04:29 11.9 °F 9.5 °F 30.41 in NE 1.0 mph 4.0 mph 90% 0.00 in 0.00 W/m2
04:34 11.9 °F 9.5 °F 30.41 in NE 2.0 mph 4.0 mph 90% 0.00 in 0.00 W/m2
04:39 11.9 °F 9.5 °F 30.41 in NE 2.0 mph 3.0 mph 90% 0.00 in 0.00 W/m2
04:44 11.9 °F 9.5 °F 30.41 in NE 1.0 mph 3.0 mph 90% 0.00 in 0.00 W/m2
04:49 11.9 °F 9.5 °F 30.41 in NE 2.0 mph 4.0 mph 90% 0.00 in 0.00 W/m2
04:54 11.9 °F 9.5 °F 30.41 in NE 2.0 mph 4.0 mph 90% 0.00 in 0.00 W/m2
04:59 11.9 °F 9.5 °F 30.41 in Calm   3.0 mph 90% 0.00 in 0.00 W/m2
05:04 11.9 °F 9.5 °F 30.42 in NE 2.0 mph 3.0 mph 90% 0.00 in 0.00 W/m2
05:09 11.9 °F 9.5 °F 30.42 in NNE 2.0 mph 3.0 mph 90% 0.00 in 0.00 W/m2
05:14 12.0 °F 9.6 °F 30.42 in NNE 2.0 mph 3.0 mph 90% 0.00 in 0.00 W/m2
05:19 12.0 °F 9.6 °F 30.42 in NNE 2.0 mph 3.0 mph 90% 0.00 in 0.00 W/m2
05:24 12.1 °F 9.7 °F 30.42 in NNE 1.0 mph 3.0 mph 90% 0.00 in 0.00 W/m2
05:29 12.1 °F 9.7 °F 30.42 in NNE 1.0 mph 3.0 mph 90% 0.00 in 0.00 W/m2
05:34 12.1 °F 9.7 °F 30.42 in NNE 3.0 mph 4.0 mph 90% 0.00 in 0.00 W/m2
05:39 12.1 °F 9.7 °F 30.42 in NE 3.0 mph 4.0 mph 90% 0.00 in 0.00 W/m2
05:44 12.1 °F 9.7 °F 30.42 in NE 2.0 mph 4.0 mph 90% 0.00 in 0.00 W/m2
05:49 12.1 °F 9.7 °F 30.42 in NE 2.0 mph 4.0 mph 90% 0.00 in 0.00 W/m2
05:54 12.1 °F 9.7 °F 30.42 in NE 3.0 mph 4.0 mph 90% 0.00 in 0.00 W/m2
05:59 12.1 °F 9.7 °F 30.42 in NE 2.0 mph 3.0 mph 90% 0.00 in 0.00 W/m2
06:04 12.1 °F 9.7 °F 30.42 in NE 1.0 mph 3.0 mph 90% 0.00 in 0.00 W/m2
06:09 12.1 °F 9.7 °F 30.41 in Calm   3.0 mph 90% 0.00 in 0.00 W/m2
06:14 12.1 °F 9.7 °F 30.41 in NE 2.0 mph 2.0 mph 90% 0.00 in 0.00 W/m2
06:19 12.2 °F 9.8 °F 30.41 in NE 2.0 mph 2.0 mph 90% 0.00 in 0.00 W/m2
06:24 12.2 °F 9.8 °F 30.41 in NE 2.0 mph 3.0 mph 90% 0.00 in 0.00 W/m2
06:29 12.1 °F 9.7 °F 30.41 in NE 2.0 mph 3.0 mph 90% 0.00 in 0.00 W/m2
06:34 12.2 °F 9.8 °F 30.41 in NE 2.0 mph 4.0 mph 90% 0.00 in 0.00 W/m2
06:39 12.1 °F 9.7 °F 30.41 in ENE 3.0 mph 5.0 mph 90% 0.00 in 0.00 W/m2
06:44 12.1 °F 9.7 °F 30.41 in ENE 4.0 mph 5.0 mph 90% 0.00 in 0.00 W/m2
06:49 12.1 °F 9.7 °F 30.41 in NE 4.0 mph 7.0 mph 90% 0.00 in 0.00 W/m2
06:54 12.0 °F 9.6 °F 30.41 in ENE 4.0 mph 7.0 mph 90% 0.00 in 0.00 W/m2
06:59 11.9 °F 9.5 °F 30.41 in ENE 1.0 mph 5.0 mph 90% 0.00 in 0.00 W/m2
07:04 12.0 °F 9.6 °F 30.41 in ENE 1.0 mph 5.0 mph 90% 0.00 in 0.00 W/m2
07:09 12.0 °F 9.6 °F 30.41 in ENE 3.0 mph 6.0 mph 90% 0.00 in 0.00 W/m2
07:14 11.9 °F 9.5 °F 30.41 in East 3.0 mph 6.0 mph 90% 0.00 in 0.00 W/m2
07:19 11.9 °F 9.5 °F 30.41 in East 1.0 mph 5.0 mph 90% 0.00 in 0.00 W/m2
07:24 11.9 °F 9.5 °F 30.42 in East 3.0 mph 3.0 mph 90% 0.00 in 0.00 W/m2
07:29 11.9 °F 9.5 °F 30.42 in Calm   5.0 mph 90% 0.00 in 0.00 W/m2
07:34 11.9 °F 9.5 °F 30.42 in East 2.0 mph 5.0 mph 90% 0.00 in 0.00 W/m2
07:39 11.9 °F 9.5 °F 30.42 in East 2.0 mph 5.0 mph 90% 0.00 in 0.00 W/m2
07:44 11.9 °F 9.5 °F 30.43 in East 1.0 mph 5.0 mph 90% 0.00 in 0.00 W/m2
07:49 11.9 °F 9.5 °F 30.42 in East 2.0 mph 3.0 mph 90% 0.00 in 0.00 W/m2
07:54 12.0 °F 9.6 °F 30.42 in East 1.0 mph 3.0 mph 90% 0.00 in 0.00 W/m2
07:59 12.0 °F 9.6 °F 30.43 in Calm   3.0 mph 90% 0.00 in 0.00 W/m2
08:04 12.0 °F 9.6 °F 30.43 in East 3.0 mph 3.0 mph 90% 0.00 in 0.00 W/m2
08:09 11.9 °F 9.5 °F 30.43 in East 2.0 mph 3.0 mph 90% 0.00 in 0.00 W/m2
08:14 12.0 °F 9.6 °F 30.43 in Calm   3.0 mph 90% 0.00 in 0.00 W/m2
08:19 12.0 °F 9.6 °F 30.43 in East 2.0 mph 2.0 mph 90% 0.00 in 0.00 W/m2
08:24 12.0 °F 9.6 °F 30.43 in East 1.0 mph 2.0 mph 90% 0.00 in 0.00 W/m2
08:29 12.0 °F 9.6 °F 30.43 in East 1.0 mph 2.0 mph 90% 0.00 in 0.00 W/m2
08:34 12.0 °F 9.6 °F 30.43 in Calm   2.0 mph 90% 0.00 in 5.00 W/m2
08:39 12.1 °F 9.7 °F 30.43 in Calm   2.0 mph 90% 0.00 in 7.00 W/m2
08:44 12.1 °F 9.7 °F 30.44 in Calm     90% 0.00 in 9.00 W/m2
08:49 12.1 °F 9.7 °F 30.43 in Calm     90% 0.00 in 12.00 W/m2
08:54 12.1 °F 9.7 °F 30.43 in Calm     90% 0.00 in 14.00 W/m2
08:59 12.1 °F 9.7 °F 30.43 in Calm     90% 0.00 in 18.00 W/m2
09:04 12.1 °F 9.7 °F 30.43 in East 2.0 mph 2.0 mph 90% 0.00 in 21.00 W/m2
09:09 12.2 °F 9.8 °F 30.43 in Calm   2.0 mph 90% 0.00 in 23.00 W/m2
09:14 12.4 °F 10.0 °F 30.43 in East 2.0 mph 3.0 mph 90% 0.00 in 28.00 W/m2
09:19 12.5 °F 10.1 °F 30.44 in East 2.0 mph 3.0 mph 90% 0.00 in 33.00 W/m2
09:24 12.5 °F 10.1 °F 30.44 in East 1.0 mph 3.0 mph 90% 0.00 in 39.00 W/m2
09:29 12.5 °F 10.1 °F 30.44 in ESE 1.0 mph 5.0 mph 90% 0.00 in 42.00 W/m2
09:34 12.5 °F 10.1 °F 30.44 in ESE 2.0 mph 5.0 mph 90% 0.00 in 47.00 W/m2
09:39 12.6 °F 10.2 °F 30.44 in ESE 4.0 mph 5.0 mph 90% 0.00 in 56.00 W/m2
09:44 12.6 °F 10.2 °F 30.44 in ESE 3.0 mph 5.0 mph 90% 0.00 in 58.00 W/m2
09:49 12.6 °F 10.2 °F 30.44 in ESE 2.0 mph 4.0 mph 90% 0.00 in 65.00 W/m2
09:54 12.7 °F 10.3 °F 30.45 in ESE 2.0 mph 4.0 mph 90% 0.00 in 70.00 W/m2
09:59 12.8 °F 10.4 °F 30.45 in ESE 2.0 mph 4.0 mph 90% 0.00 in 83.00 W/m2
10:04 13.0 °F 10.6 °F 30.45 in ESE 3.0 mph 4.0 mph 90% 0.00 in 83.00 W/m2
10:09 13.0 °F 10.6 °F 30.45 in ESE 3.0 mph 4.0 mph 90% 0.00 in 81.00 W/m2
10:14 13.1 °F 10.7 °F 30.45 in ESE 2.0 mph 4.0 mph 90% 0.00 in 86.00 W/m2
10:19 13.1 °F 10.7 °F 30.45 in ESE 2.0 mph 3.0 mph 90% 0.00 in 93.00 W/m2
10:24 13.1 °F 10.7 °F 30.44 in ESE 4.0 mph 4.0 mph 90% 0.00 in 93.00 W/m2
10:29 13.1 °F 10.7 °F 30.44 in ESE 1.0 mph 4.0 mph 90% 0.00 in 95.00 W/m2
10:34 13.3 °F 10.9 °F 30.44 in SE 4.0 mph 5.0 mph 90% 0.00 in 105.00 W/m2
10:39 13.4 °F 11.0 °F 30.44 in ESE 2.0 mph 5.0 mph 90% 0.00 in 116.00 W/m2
10:44 13.5 °F 11.1 °F 30.44 in ESE 2.0 mph 5.0 mph 90% 0.00 in 118.00 W/m2
10:49 13.5 °F 11.1 °F 30.44 in ESE 2.0 mph 5.0 mph 90% 0.00 in 123.00 W/m2
10:54 13.5 °F 11.4 °F 30.44 in ESE 3.0 mph 4.0 mph 91% 0.00 in 123.00 W/m2
10:59 13.6 °F 11.5 °F 30.43 in SE 5.0 mph 5.0 mph 91% 0.00 in 125.00 W/m2
11:04 13.7 °F 11.6 °F 30.43 in SE 5.0 mph 5.0 mph 91% 0.00 in 127.00 W/m2
11:09 13.8 °F 11.4 °F 30.43 in SE 4.0 mph 6.0 mph 90% 0.00 in 139.00 W/m2
11:14 13.9 °F 11.5 °F 30.43 in SE 4.0 mph 6.0 mph 90% 0.00 in 134.00 W/m2
11:19 13.9 °F 11.5 °F 30.43 in SE 2.0 mph 5.0 mph 90% 0.00 in 134.00 W/m2
11:24 13.9 °F 11.5 °F 30.43 in SE 4.0 mph 5.0 mph 90% 0.00 in 139.00 W/m2
11:29 14.0 °F 11.9 °F 30.43 in ESE 5.0 mph 5.0 mph 91% 0.00 in 139.00 W/m2
11:34 14.1 °F 12.0 °F 30.42 in SE 3.0 mph 5.0 mph 91% 0.00 in 148.00 W/m2
11:39 14.2 °F 12.1 °F 30.42 in SE 3.0 mph 5.0 mph 91% 0.00 in 151.00 W/m2
11:44 14.4 °F 12.3 °F 30.42 in SE 2.0 mph 5.0 mph 91% 0.00 in 172.00 W/m2
11:49 14.4 °F 12.3 °F 30.42 in SE 3.0 mph 6.0 mph 91% 0.00 in 158.00 W/m2
11:54 14.5 °F 12.4 °F 30.42 in SE 4.0 mph 6.0 mph 91% 0.00 in 165.00 W/m2
11:59 14.6 °F 12.5 °F 30.42 in SE 5.0 mph 6.0 mph 91% 0.00 in 162.00 W/m2
12:04 14.7 °F 12.6 °F 30.42 in SSE 3.0 mph 6.0 mph 91% 0.00 in 172.00 W/m2
12:09 14.8 °F 12.6 °F 30.41 in SSE 5.0 mph 6.0 mph 91% 0.00 in 167.00 W/m2
12:14 14.9 °F 12.7 °F 30.41 in SE 3.0 mph 6.0 mph 91% 0.00 in 181.00 W/m2
12:19 15.0 °F 12.8 °F 30.41 in South 5.0 mph 6.0 mph 91% 0.00 in 190.00 W/m2
12:24 15.1 °F 12.9 °F 30.41 in South 3.0 mph 5.0 mph 91% 0.00 in 178.00 W/m2
12:29 15.2 °F 13.0 °F 30.41 in SSE 5.0 mph 5.0 mph 91% 0.00 in 181.00 W/m2
12:34 15.3 °F 13.1 °F 30.40 in SSE 3.0 mph 5.0 mph 91% 0.00 in 190.00 W/m2
12:39 15.3 °F 13.1 °F 30.40 in SSE 2.0 mph 5.0 mph 91% 0.00 in 186.00 W/m2
12:44 15.4 °F 13.2 °F 30.40 in SE 4.0 mph 5.0 mph 91% 0.00 in 171.00 W/m2
12:49 15.5 °F 13.3 °F 30.39 in South 3.0 mph 5.0 mph 91% 0.00 in 172.00 W/m2
12:54 15.7 °F 13.5 °F 30.39 in South 4.0 mph 6.0 mph 91% 0.00 in 186.00 W/m2
12:59 15.8 °F 13.6 °F 30.39 in South 5.0 mph 7.0 mph 91% 0.00 in 176.00 W/m2
13:04 15.9 °F 13.7 °F 30.39 in South 5.0 mph 7.0 mph 91% 0.00 in 181.00 W/m2
13:09 15.9 °F 13.7 °F 30.39 in South 3.0 mph 9.0 mph 91% 0.00 in 176.00 W/m2
13:14 16.1 °F 13.7 °F 30.39 in South 9.0 mph 12.0 mph 90% 0.00 in 167.00 W/m2
13:19 16.1 °F 13.7 °F 30.39 in South 10.0 mph 12.0 mph 90% 0.00 in 156.00 W/m2
13:24 16.1 °F 13.7 °F 30.39 in South 3.0 mph 11.0 mph 90% 0.00 in 149.00 W/m2
13:29 16.2 °F 13.8 °F 30.39 in SSE 6.0 mph 10.0 mph 90% 0.00 in 151.00 W/m2
13:34 16.2 °F 13.8 °F 30.38 in SSE 7.0 mph 11.0 mph 90% 0.00 in 146.00 W/m2
13:39 16.1 °F 13.7 °F 30.38 in SE 7.0 mph 11.0 mph 90% 0.00 in 146.00 W/m2
13:44 16.2 °F 13.5 °F 30.38 in South 7.0 mph 10.0 mph 89% 0.00 in 139.00 W/m2
13:49 16.2 °F 13.8 °F 30.38 in South 6.0 mph 10.0 mph 90% 0.00 in 135.00 W/m2
13:54 16.3 °F 13.6 °F 30.38 in SSE 6.0 mph 9.0 mph 89% 0.00 in 130.00 W/m2
13:59 16.3 °F 13.6 °F 30.38 in SSE 7.0 mph 9.0 mph 89% 0.00 in 128.00 W/m2
14:04 16.2 °F 13.5 °F 30.38 in South 6.0 mph 10.0 mph 89% 0.00 in 128.00 W/m2
14:09 16.2 °F 13.5 °F 30.38 in SSE 4.0 mph 10.0 mph 89% 0.00 in 128.00 W/m2
14:14 16.3 °F 13.6 °F 30.38 in South 4.0 mph 9.0 mph 89% 0.00 in 123.00 W/m2
14:19 16.4 °F 13.7 °F 30.38 in South 4.0 mph 8.0 mph 89% 0.00 in 123.00 W/m2
14:24 16.5 °F 13.8 °F 30.38 in SSE 6.0 mph 8.0 mph 89% 0.00 in 118.00 W/m2
14:29 16.6 °F 13.9 °F 30.38 in South 5.0 mph 9.0 mph 89% 0.00 in 113.00 W/m2
14:34 16.6 °F 13.9 °F 30.38 in SSE 6.0 mph 9.0 mph 89% 0.00 in 107.00 W/m2
14:39 16.6 °F 13.7 °F 30.38 in SSE 5.0 mph 7.0 mph 88% 0.00 in 105.00 W/m2
14:44 16.6 °F 13.9 °F 30.39 in South 3.0 mph 8.0 mph 89% 0.00 in 98.00 W/m2
14:49 16.7 °F 13.8 °F 30.39 in SSW 8.0 mph 8.0 mph 88% 0.00 in 95.00 W/m2
14:54 16.8 °F 13.9 °F 30.39 in South 5.0 mph 8.0 mph 88% 0.00 in 93.00 W/m2
14:59 16.9 °F 14.0 °F 30.39 in SSW 5.0 mph 8.0 mph 88% 0.00 in 95.00 W/m2
15:04 16.9 °F 14.0 °F 30.39 in South 6.0 mph 9.0 mph 88% 0.00 in 97.00 W/m2
15:09 16.9 °F 14.0 °F 30.39 in SSE 2.0 mph 9.0 mph 88% 0.00 in 91.00 W/m2
15:14 16.9 °F 14.0 °F 30.39 in SSE 4.0 mph 7.0 mph 88% 0.00 in 86.00 W/m2
15:19 17.0 °F 14.1 °F 30.39 in SSW 3.0 mph 7.0 mph 88% 0.00 in 83.00 W/m2
15:24 17.0 °F 14.1 °F 30.39 in SSE 5.0 mph 6.0 mph 88% 0.00 in 83.00 W/m2
15:29 16.9 °F 14.0 °F 30.39 in SE 7.0 mph 8.0 mph 88% 0.00 in 74.00 W/m2
15:34 16.8 °F 13.9 °F 30.39 in SE 6.0 mph 9.0 mph 88% 0.00 in 72.00 W/m2
15:39 16.8 °F 13.9 °F 30.39 in South 7.0 mph 9.0 mph 88% 0.00 in 70.00 W/m2
15:44 16.9 °F 14.0 °F 30.39 in South 5.0 mph 7.0 mph 88% 0.00 in 69.00 W/m2
15:49 16.8 °F 13.9 °F 30.39 in South 7.0 mph 9.0 mph 88% 0.00 in 63.00 W/m2
15:54 16.8 °F 13.6 °F 30.38 in SSE 5.0 mph 9.0 mph 87% 0.00 in 58.00 W/m2
15:59 16.7 °F 13.8 °F 30.38 in SSE 9.0 mph 9.0 mph 88% 0.00 in 53.00 W/m2
16:04 16.7 °F 13.5 °F 30.39 in South 8.0 mph 10.0 mph 87% 0.00 in 47.00 W/m2
16:09 16.5 °F 13.6 °F 30.38 in SSE 8.0 mph 10.0 mph 88% 0.00 in 44.00 W/m2
16:14 16.3 °F 13.4 °F 30.38 in SE 4.0 mph 8.0 mph 88% 0.00 in 40.00 W/m2
16:19 16.3 °F 13.4 °F 30.38 in SE 7.0 mph 8.0 mph 88% 0.00 in 37.00 W/m2
16:24 16.3 °F 13.4 °F 30.38 in SSE 6.0 mph 9.0 mph 88% 0.00 in 33.00 W/m2
16:29 16.3 °F 13.4 °F 30.38 in South 6.0 mph 10.0 mph 88% 0.00 in 33.00 W/m2
16:34 16.3 °F 13.4 °F 30.38 in South 3.0 mph 10.0 mph 88% 0.00 in 26.00 W/m2
16:39 16.2 °F 13.3 °F 30.38 in SE 6.0 mph 8.0 mph 88% 0.00 in 21.00 W/m2
16:44 16.1 °F 13.2 °F 30.38 in SSE 4.0 mph 10.0 mph 88% 0.00 in 18.00 W/m2
16:49 16.0 °F 13.1 °F 30.38 in SE 5.0 mph 10.0 mph 88% 0.00 in 16.00 W/m2
16:54 16.0 °F 13.1 °F 30.38 in SSW 9.0 mph 9.0 mph 88% 0.00 in 12.00 W/m2
16:59 15.9 °F 13.0 °F 30.38 in South 6.0 mph 12.0 mph 88% 0.00 in 11.00 W/m2
17:04 15.9 °F 13.0 °F 30.38 in South 5.0 mph 12.0 mph 88% 0.00 in 7.00 W/m2
17:09 15.9 °F 13.2 °F 30.38 in South 4.0 mph 9.0 mph 89% 0.00 in 5.00 W/m2
17:14 15.9 °F 13.2 °F 30.38 in South 7.0 mph 9.0 mph 89% 0.00 in 0.00 W/m2
17:19 16.0 °F 13.3 °F 30.38 in South 7.0 mph 10.0 mph 89% 0.00 in 0.00 W/m2
17:24 16.0 °F 13.3 °F 30.38 in SSE 6.0 mph 12.0 mph 89% 0.00 in 0.00 W/m2
17:29 16.0 °F 13.3 °F 30.38 in South 8.0 mph 13.0 mph 89% 0.00 in 0.00 W/m2
17:34 15.9 °F 13.2 °F 30.38 in South 10.0 mph 13.0 mph 89% 0.00 in 0.00 W/m2
17:39 15.9 °F 13.2 °F 30.38 in SSE 4.0 mph 12.0 mph 89% 0.00 in 0.00 W/m2
17:44 15.9 °F 13.2 °F 30.38 in SSE 8.0 mph 12.0 mph 89% 0.00 in 0.00 W/m2
17:49 15.8 °F 13.1 °F 30.38 in South 6.0 mph 12.0 mph 89% 0.00 in 0.00 W/m2
17:54 15.7 °F 13.0 °F 30.38 in South 7.0 mph 10.0 mph 89% 0.00 in 0.00 W/m2
17:59 15.7 °F 13.0 °F 30.38 in South 7.0 mph 10.0 mph 89% 0.00 in 0.00 W/m2
18:04 15.7 °F 13.3 °F 30.38 in SSE 8.0 mph 8.0 mph 90% 0.00 in 0.00 W/m2
18:09 15.7 °F 13.3 °F 30.38 in SSE 6.0 mph 10.0 mph 90% 0.00 in 0.00 W/m2
18:14 15.7 °F 13.3 °F 30.38 in South 11.0 mph 13.0 mph 90% 0.00 in 0.00 W/m2
18:19 15.7 °F 13.3 °F 30.38 in SSE 8.0 mph 13.0 mph 90% 0.00 in 0.00 W/m2
18:24 15.7 °F 13.3 °F 30.38 in South 6.0 mph 13.0 mph 90% 0.00 in 0.00 W/m2
18:29 15.7 °F 13.3 °F 30.38 in SSE 8.0 mph 14.0 mph 90% 0.00 in 0.00 W/m2
18:34 15.8 °F 13.4 °F 30.38 in South 6.0 mph 14.0 mph 90% 0.00 in 0.00 W/m2
18:39 15.8 °F 13.4 °F 30.38 in South 7.0 mph 13.0 mph 90% 0.00 in 0.00 W/m2
18:44 15.8 °F 13.4 °F 30.38 in South 9.0 mph 13.0 mph 90% 0.00 in 0.00 W/m2
18:49 15.8 °F 13.4 °F 30.38 in South 11.0 mph 13.0 mph 90% 0.00 in 0.00 W/m2
18:54 15.9 °F 13.5 °F 30.38 in South 7.0 mph 13.0 mph 90% 0.00 in 0.00 W/m2
18:59 15.9 °F 13.5 °F 30.38 in South 10.0 mph 14.0 mph 90% 0.00 in 0.00 W/m2
19:04 15.9 °F 13.5 °F 30.38 in SSE 7.0 mph 14.0 mph 90% 0.00 in 0.00 W/m2
19:09 15.9 °F 13.5 °F 30.38 in SSE 10.0 mph 14.0 mph 90% 0.00 in 0.00 W/m2
19:14 15.9 °F 13.5 °F 30.38 in South 9.0 mph 14.0 mph 90% 0.00 in 0.00 W/m2
19:19 15.8 °F 13.4 °F 30.38 in SSE 8.0 mph 14.0 mph 90% 0.00 in 0.00 W/m2
19:24 15.8 °F 13.4 °F 30.38 in South 9.0 mph 13.0 mph 90% 0.00 in 0.00 W/m2
19:29 15.8 °F 13.6 °F 30.38 in South 7.0 mph 13.0 mph 91% 0.00 in 0.00 W/m2
19:34 15.9 °F 13.7 °F 30.38 in South 8.0 mph 13.0 mph 91% 0.00 in 0.00 W/m2
19:39 15.8 °F 13.6 °F 30.38 in South 11.0 mph 13.0 mph 91% 0.00 in 0.00 W/m2
19:44 15.8 °F 13.6 °F 30.38 in South 11.0 mph 13.0 mph 91% 0.00 in 0.00 W/m2
19:49 15.9 °F 13.7 °F 30.38 in South 9.0 mph 15.0 mph 91% 0.00 in 0.00 W/m2
19:54 15.8 °F 13.6 °F 30.38 in South 8.0 mph 15.0 mph 91% 0.00 in 0.00 W/m2
19:59 15.8 °F 13.6 °F 30.37 in South 6.0 mph 14.0 mph 91% 0.00 in 0.00 W/m2
20:04 15.7 °F 13.5 °F 30.37 in SSE 8.0 mph 13.0 mph 91% 0.00 in 0.00 W/m2
20:09 15.6 °F 13.4 °F 30.37 in South 9.0 mph 14.0 mph 91% 0.00 in 0.00 W/m2
20:14 15.6 °F 13.4 °F 30.37 in South 8.0 mph 14.0 mph 91% 0.00 in 0.00 W/m2
20:19 15.6 °F 13.4 °F 30.37 in SSE 8.0 mph 14.0 mph 91% 0.00 in 0.00 W/m2
20:24 15.5 °F 13.3 °F 30.36 in South 9.0 mph 16.0 mph 91% 0.00 in 0.00 W/m2
20:29 15.4 °F 13.2 °F 30.37 in South 10.0 mph 16.0 mph 91% 0.00 in 0.00 W/m2
20:34 15.4 °F 13.2 °F 30.36 in South 13.0 mph 15.0 mph 91% 0.00 in 0.00 W/m2
20:39 15.4 °F 13.2 °F 30.36 in South 7.0 mph 15.0 mph 91% 0.00 in 0.00 W/m2
20:44 15.5 °F 13.3 °F 30.36 in South 11.0 mph 15.0 mph 91% 0.00 in 0.00 W/m2
20:49 15.5 °F 13.3 °F 30.36 in SSE 8.0 mph 15.0 mph 91% 0.00 in 0.00 W/m2
20:54 15.5 °F 13.3 °F 30.36 in SSE 8.0 mph 15.0 mph 91% 0.00 in 0.00 W/m2
20:59 15.6 °F 13.7 °F 30.36 in SSE 8.0 mph 15.0 mph 92% 0.00 in 0.00 W/m2
21:04 15.6 °F 13.7 °F 30.36 in South 10.0 mph 15.0 mph 92% 0.00 in 0.00 W/m2
21:09 15.5 °F 13.6 °F 30.36 in SSW 7.0 mph 14.0 mph 92% 0.00 in 0.00 W/m2
21:14 15.4 °F 13.2 °F 30.36 in South 10.0 mph 13.0 mph 91% 0.00 in 0.00 W/m2
21:19 15.4 °F 13.2 °F 30.36 in South 9.0 mph 13.0 mph 91% 0.00 in 0.00 W/m2
21:24 15.3 °F 13.1 °F 30.36 in South 7.0 mph 12.0 mph 91% 0.00 in 0.00 W/m2
21:29 15.1 °F 12.9 °F 30.36 in South 9.0 mph 14.0 mph 91% 0.00 in 0.00 W/m2
21:34 14.9 °F 12.7 °F 30.36 in South 11.0 mph 15.0 mph 91% 0.00 in 0.00 W/m2
21:39 14.7 °F 12.6 °F 30.36 in SSE 7.0 mph 15.0 mph 91% 0.00 in 0.00 W/m2
21:44 14.6 °F 12.5 °F 30.36 in SSE 9.0 mph 15.0 mph 91% 0.00 in 0.00 W/m2
21:49 14.6 °F 12.7 °F 30.36 in South 11.0 mph 14.0 mph 92% 0.00 in 0.00 W/m2
21:54 14.6 °F 12.7 °F 30.36 in South 11.0 mph 17.0 mph 92% 0.00 in 0.00 W/m2
21:59 14.8 °F 12.9 °F 30.35 in South 9.0 mph 17.0 mph 92% 0.00 in 0.00 W/m2
22:04 14.8 °F 12.9 °F 30.36 in SSE 7.0 mph 17.0 mph 92% 0.00 in 0.00 W/m2
22:09 14.9 °F 13.0 °F 30.36 in South 10.0 mph 13.0 mph 92% 0.00 in 0.00 W/m2
22:14 15.0 °F 13.1 °F 30.36 in South 12.0 mph 14.0 mph 92% 0.00 in 0.00 W/m2
22:19 15.0 °F 13.1 °F 30.35 in SSE 8.0 mph 14.0 mph 92% 0.00 in 0.00 W/m2
22:24 15.0 °F 13.1 °F 30.35 in SSE 11.0 mph 15.0 mph 92% 0.00 in 0.00 W/m2
22:29 15.1 °F 13.2 °F 30.35 in SSE 8.0 mph 15.0 mph 92% 0.00 in 0.00 W/m2
22:34 15.0 °F 13.1 °F 30.35 in South 12.0 mph 18.0 mph 92% 0.00 in 0.00 W/m2
22:39 15.0 °F 13.1 °F 30.35 in South 9.0 mph 18.0 mph 92% 0.00 in 0.00 W/m2
22:44 15.1 °F 13.2 °F 30.35 in SSE 16.0 mph 16.0 mph 92% 0.00 in 0.00 W/m2
22:49 15.1 °F 13.2 °F 30.35 in South 9.0 mph 16.0 mph 92% 0.00 in 0.00 W/m2
22:54 15.1 °F 13.2 °F 30.35 in South 10.0 mph 16.0 mph 92% 0.00 in 0.00 W/m2
22:59 15.2 °F 13.3 °F 30.35 in South 7.0 mph 16.0 mph 92% 0.00 in 0.00 W/m2
23:04 15.3 °F 13.4 °F 30.34 in SSW 13.0 mph 13.0 mph 92% 0.00 in 0.00 W/m2
23:09 15.3 °F 13.4 °F 30.35 in South 9.0 mph 14.0 mph 92% 0.00 in 0.00 W/m2
23:14 15.3 °F 13.4 °F 30.34 in South 11.0 mph 15.0 mph 92% 0.00 in 0.00 W/m2
23:19 15.3 °F 13.4 °F 30.35 in South 10.0 mph 16.0 mph 92% 0.00 in 0.00 W/m2
23:24 15.3 °F 13.4 °F 30.35 in SSW 5.0 mph 16.0 mph 92% 0.00 in 0.00 W/m2
23:29 15.4 °F 13.5 °F 30.35 in SSW 9.0 mph 16.0 mph 92% 0.00 in 0.00 W/m2
23:34 15.3 °F 13.4 °F 30.35 in South 6.0 mph 16.0 mph 92% 0.00 in 0.00 W/m2
23:39 15.3 °F 13.4 °F 30.35 in South 15.0 mph 15.0 mph 92% 0.00 in 0.00 W/m2
23:44 15.2 °F 13.3 °F 30.35 in South 8.0 mph 16.0 mph 92% 0.00 in 0.00 W/m2
23:49 15.2 °F 13.3 °F 30.35 in South 9.0 mph 16.0 mph 92% 0.00 in 0.00 W/m2
23:54 15.3 °F 13.4 °F 30.35 in South 12.0 mph 15.0 mph 92% 0.00 in 0.00 W/m2
23:59 15.3 °F 13.4 °F 30.34 in SW 11.0 mph 17.0 mph 92% 0.00 in 0.00 W/m2
Bismarck, North Dakota, USA
Compliments of Weather Underground - 4 mb